DW6866 Weather Reports


time (UTC)temp
F
wind
direction
speed
knots
gust
knots
rain 1hr
in
rain 24hr
in
rain mn
in
humidity
%
barometer
mb
20260507051625 53 160 0.0 3.5 0.00 0.00 0.00 81 1021.0
20260507050118 53 136 0.9 2.6 0.00 0.00 0.00 81 1021.1
20260507044623 53 202 0.0 3.5 0.00 0.00 0.00 81 1021.1
20260507043116 54 218 0.0 4.3 0.00 0.00 0.00 81 1021.0
20260507041627 54 247 0.0 0.9 0.00 0.00 0.00 81 1021.1
20260507040140 54 240 0.0 0.0 0.00 0.00 0.00 81 1020.9
20260507034626 54 264 0.0 0.0 0.00 0.00 0.00 80 1020.8
20260507033119 55 259 0.0 0.0 0.00 0.00 0.00 79 1020.7
20260507031628 55 259 0.0 0.0 0.00 0.00 0.00 78 1020.5
20260507030119 56 226 0.0 0.0 0.00 0.00 0.00 77 1020.4
20260507024626 56 275 0.0 3.5 0.00 0.00 0.00 76 1020.3
20260507023139 56 260 0.9 4.3 0.00 0.00 0.00 75 1020.3
20260507021621 57 281 0.9 4.3 0.00 0.00 0.00 75 1020.2
20260507020122 57 290 0.9 3.5 0.00 0.00 0.00 74 1020.3
20260507014632 58 196 0.0 4.3 0.00 0.00 0.00 72 1020.2
20260507013140 58 129 0.9 5.2 0.00 0.00 0.00 71 1020.2
20260507011658 60 208 0.0 6.1 0.00 0.00 0.00 68 1020.3
20260507010119 61 246 0.9 7.0 0.00 0.00 0.00 67 1020.2
20260507004625 60 243 0.9 5.2 0.00 0.00 0.00 70 1020.3
20260507003139 58 140 1.7 7.0 0.00 0.00 0.00 72 1020.2
20260507001629 58 249 0.9 4.3 0.00 0.00 0.00 72 1020.4
20260507000122 59 216 0.9 6.1 0.00 0.00 0.00 72 1020.3
20260506234650 60 238 0.9 6.1 0.00 0.00 0.00 70 1020.4
20260506233132 60 275 3.5 8.7 0.00 0.00 0.00 70 1020.3
20260506231629 60 167 1.7 5.2 0.00 0.00 0.00 69 1020.4
20260506230124 60 251 1.7 7.0 0.00 0.00 0.00 68 1020.4
20260506224634 60 239 2.6 7.8 0.00 0.00 0.00 69 1020.4
20260506223140 59 206 2.6 6.1 0.00 0.00 0.00 70 1020.5
20260506221614 59 227 1.7 4.3 0.00 0.00 0.00 71 1020.6
20260506220119 59 129 0.9 4.3 0.00 0.00 0.00 71 1020.7
20260506214625 58 195 0.0 6.1 0.00 0.00 0.00 72 1020.7
20260506213115 58 105 0.9 3.5 0.00 0.00 0.00 73 1020.7
20260506211618 57 253 0.9 6.1 0.00 0.00 0.00 75 1020.8
20260506210155 57 213 0.9 6.1 0.00 0.00 0.00 76 1020.8
20260506204632 57 272 0.9 6.1 0.00 0.00 0.00 76 1020.8
20260506203139 57 233 0.9 6.1 0.00 0.00 0.00 78 1020.7
20260506201631 57 249 0.9 4.3 0.00 0.00 0.00 78 1020.7
20260506200123 56 245 0.0 7.0 0.00 0.00 0.00 80 1020.6
20260506194627 56 266 0.9 4.3 0.00 0.00 0.00 82 1020.5
20260506193123 56 276 0.9 3.5 0.00 0.00 0.00 82 1020.5
20260506191631 55 122 0.9 7.8 0.00 0.00 0.00 83 1020.6
20260506190134 55 183 0.0 4.3 0.00 0.00 0.00 84 1020.5
20260506184629 55 162 0.0 3.5 0.00 0.00 0.00 85 1020.7
20260506183119 54 131 2.6 7.0 0.00 0.00 0.00 84 1020.3
20260506181626 54 111 1.7 7.8 0.00 0.00 0.00 85 1020.3
20260506180134 54 315 0.0 7.0 0.00 0.00 0.00 86 1020.4
20260506174618 53 174 1.7 3.5 0.00 0.00 0.00 86 1020.3
20260506173126 53 237 0.0 3.5 0.00 0.00 0.00 87 1020.4
20260506171654 53 144 0.9 3.5 0.00 0.00 0.00 87 1020.4
20260506170124 52 136 0.0 5.2 0.00 0.00 0.00 87 1020.4
20260506164651 52 236 0.0 4.3 0.00 0.00 0.00 88 1020.1
20260506163141 52 225 0.9 3.5 0.00 0.00 0.00 88 1020.0
20260506161628 52 165 0.0 3.5 0.00 0.00 0.00 88 1020.0
20260506160141 52 193 0.9 5.2 0.00 0.00 0.00 88 1020.1
20260506154632 52 233 0.0 2.6 0.00 0.00 0.00 89 1019.9
20260506153124 51 207 1.7 3.5 0.00 0.00 0.00 89 1019.8
20260506151634 51 163 0.0 4.3 0.00 0.00 0.00 89 1019.9
20260506150145 51 259 0.0 4.3 0.00 0.00 0.00 89 1020.0
20260506144628 51 147 0.0 1.7 0.00 0.00 0.00 89 1019.6
20260506143120 51 172 0.0 2.6 0.00 0.00 0.00 89 1019.4
20260506141629 51 188 0.0 0.9 0.00 0.00 0.00 90 1019.5
20260506140140 51 158 0.0 3.5 0.00 0.00 0.00 90 1019.4
20260506134623 51 221 0.0 2.6 0.00 0.00 0.00 90 1019.6
20260506133134 51 193 0.0 3.5 0.00 0.00 0.00 89 1019.4
20260506131630 51 172 0.0 5.2 0.00 0.00 0.00 89 1019.2
20260506130139 51 175 0.0 0.0 0.00 0.00 0.00 90 1019.1
20260506124624 51 176 0.0 0.0 0.00 0.00 0.00 90 1019.0
20260506123118 51 246 0.0 0.0 0.00 0.00 0.00 91 1018.9
20260506121624 51 169 0.0 0.0 0.00 0.00 0.00 91 1018.9
20260506120112 51 169 0.0 0.0 0.00 0.00 0.00 91 1018.6
20260506114622 51 160 0.0 0.0 0.00 0.00 0.00 90 1018.5
20260506113134 51 160 0.0 0.0 0.00 0.00 0.00 90 1018.7
20260506111615 51 203 0.0 0.0 0.00 0.00 0.00 90 1018.6
20260506110123 52 175 0.0 0.0 0.00 0.00 0.00 89 1018.5
20260506104632 52 212 0.0 0.0 0.00 0.00 0.00 88 1018.4
20260506103126 52 139 0.0 0.0 0.00 0.00 0.00 88 1018.2
20260506101632 52 257 0.0 0.0 0.00 0.00 0.00 88 1018.0
20260506100121 52 238 0.0 0.0 0.00 0.00 0.00 88 1017.7
20260506094630 52 304 0.0 0.0 0.00 0.00 0.00 88 1017.7
20260506093242 53 119 0.0 0.0 0.00 0.00 0.00 88 1017.5
20260506091640 53 232 0.0 2.6 0.00 0.00 0.00 88 1017.6
20260506090115 52 218 0.0 2.6 0.00 0.00 0.00 88 1017.5
20260506084639 52 189 0.0 0.0 0.00 0.00 0.00 89 1017.4
20260506083128 52 257 0.0 0.0 0.00 0.00 0.00 89 1017.4
20260506081618 52 257 0.0 0.0 0.00 0.00 0.00 90 1017.4
20260506080210 51 257 0.0 0.0 0.00 0.00 0.00 90 1017.4
20260506073123 51 257 0.0 0.0 0.00 0.00 0.00 89 1017.1
20260506071616 52 257 0.0 0.0 0.00 0.00 0.00 89 1016.9
20260506070127 52 257 0.0 0.0 0.00 0.00 0.00 89 1016.8
20260506061627 54 225 0.0 0.9 0.00 0.00 0.00 88 1016.3
20260506060140 54 224 0.0 0.0 0.00 0.00 0.00 87 1016.1